Weather History for PAMR - September, 2013

Change the Weather History Date:

Thursday, September 26, 2013

  Actual Average Record
Temperature  
Mean Temperature 46 °F -  
Max Temperature 50 °F 49 °F 57 °F (2003)
Min Temperature 43 °F 36 °F 28 °F (1999)
Degree Days  
Heating Degree Days 18    
Moisture  
Dew Point 42 °F    
Average Humidity 84    
Maximum Humidity 90    
Minimum Humidity 74    
Precipitation  
Precipitation 0.25 in - - ()
Sea Level Pressure  
Sea Level Pressure 29.52 in    
Wind  
Wind Speed 3 mph (North)    
Max Wind Speed 6 mph    
Max Gust Speed -    
Visibility 10 miles    
Events Rain    
Averages and records for this station are not official NWS values.
T = Trace of Precipitation, MM = Missing Value Source: NWS Daily Summary

Daily Weather History Graph

Daily Weather History Graph

Search for Another Location

Airport or City:

Trip Planner

Search our weather history database for the weather conditions in past years. The results will help you decide how hot, cold, wet, or windy it might be!

Date:

Astronomy

Sep. 26, 2013 Rise Set
Actual Time 7:54 AM AKDT 7:45 PM AKDT
Civil Twilight 7:11 AM AKDT 8:28 PM AKDT
Nautical Twilight 6:19 AM AKDT 9:19 PM AKDT
Astronomical Twilight 5:24 AM AKDT 10:14 PM AKDT
Moon 11:26 PM AKDT (9/26) 4:22 PM AKDT (9/26)
Length of Visible Light 13h 16m
Length of Day
11h 50m
Waning Gibbous, 53% of the Moon is Illuminated
Sep 26
Waning Gibbous
Sep 26
Last Quarter
Oct 4
New
Oct 11
First Quarter
Oct 18
Full

Hourly Weather History & Observations

Time (AKDT) Temp. Windchill Dew Point Humidity Pressure Visibility Wind Dir Wind Speed Gust Speed Precip Events Conditions
12:53 AM 46.0 °F 43.9 °F 43.0 °F 89% 29.58 in 10.0 mi North 4.6 mph - 0.02 in Rain Light Rain
1:53 AM 45.0 °F 43.5 °F 42.1 °F 90% 29.58 in 10.0 mi NNW 3.5 mph - 0.00 in Rain Light Rain
2:53 AM 45.0 °F 42.6 °F 41.0 °F 86% 29.59 in 10.0 mi NNW 4.6 mph - 0.01 in Rain Light Rain
3:53 AM 44.1 °F 41.5 °F 39.9 °F 85% 29.59 in 9.0 mi NNW 4.6 mph - 0.01 in Rain Light Rain
4:53 AM 44.1 °F 42.5 °F 39.9 °F 85% 29.60 in 10.0 mi North 3.5 mph - 0.03 in Rain Light Rain
5:53 AM 43.0 °F 41.3 °F 39.9 °F 89% 29.60 in 8.0 mi North 3.5 mph - 0.04 in Rain Light Rain
6:53 AM 43.0 °F 41.3 °F 39.9 °F 89% 29.60 in 5.0 mi NNW 3.5 mph - 0.05 in Rain Light Rain
7:53 AM 43.0 °F 41.3 °F 39.9 °F 89% 29.61 in 10.0 mi NNE 3.5 mph - 0.04 in Rain Light Rain
8:53 AM 43.0 °F 40.3 °F 39.0 °F 86% 29.61 in 10.0 mi NNE 4.6 mph - 0.01 in Rain Light Rain
9:53 AM 43.0 °F 41.3 °F 39.9 °F 89% 29.62 in 4.0 mi North 3.5 mph - 0.02 in Rain Light Rain
10:53 AM 44.1 °F - 39.9 °F 85% 29.62 in 10.0 mi Calm Calm - 0.01 in Rain Light Rain
11:53 AM 46.0 °F - 41.0 °F 83% 29.62 in 10.0 mi Calm Calm - 0.01 in   Overcast
12:53 PM 48.0 °F - 43.0 °F 83% 29.61 in 10.0 mi Calm Calm - N/A   Overcast
1:53 PM 48.0 °F - 43.0 °F 83% 29.60 in 10.0 mi WNW 3.5 mph - N/A   Overcast
2:09 PM 48.2 °F - 42.8 °F 82% 29.58 in 10.0 mi Calm Calm - N/A   Overcast
2:23 PM 48.2 °F - 42.8 °F 82% 29.58 in 10.0 mi Calm Calm - N/A   Overcast
2:53 PM 48.9 °F - 44.1 °F 83% 29.57 in 10.0 mi North 3.5 mph - N/A   Overcast
3:53 PM 50.0 °F - 42.1 °F 74% 29.55 in 10.0 mi NNW 3.5 mph - N/A   Overcast
4:53 PM 50.0 °F - 42.1 °F 74% 29.51 in 10.0 mi NE 5.8 mph - N/A   Mostly Cloudy
5:53 PM 50.0 °F - 43.0 °F 77% 29.49 in 10.0 mi Calm Calm - N/A   Overcast
6:53 PM 48.0 °F - 43.0 °F 83% 29.47 in 10.0 mi Calm Calm - N/A   Overcast
7:53 PM 48.0 °F - 42.1 °F 80% 29.42 in 10.0 mi NNE 5.8 mph - 0.00 in   Overcast
8:53 PM 46.9 °F - 41.0 °F 80% 29.38 in 10.0 mi Calm Calm - N/A   Overcast
9:53 PM 46.9 °F - 43.0 °F 86% 29.33 in 10.0 mi North 5.8 mph - N/A   Overcast
10:13 PM 46.4 °F - 42.8 °F 87% 29.31 in 10.0 mi Calm Calm - N/A   Overcast
10:53 PM 46.0 °F 44.8 °F 42.1 °F 86% 29.29 in 10.0 mi NE 3.5 mph - 0.00 in   Overcast
11:53 PM 45.0 °F - 42.1 °F 90% 29.24 in 10.0 mi Calm Calm - N/A   Overcast